Aeroporto :
LOGIN :

Iscrizione | Disclaimer

   EN    FR    IT 

 










Sommario :    VFR   VFR Marginale   IFR   IFR Intensivo   IFR Molto Intensivo
Visibilità : 
Base nubi : 
>= 8 km
>= 3000ft
5 / 8 km
1000 / 3000 ft
1500m / 5 km
500 / 1000 ft
800 / 1500m
200 / 500 ft
< 800m
< 200 ft
Simboli :   Temporali  Nebbia  Neve Forte  Precipitazioni Forti  Vento > 20 kt
SIGMETs :   Varie  Temporali  Ghiacco  Turbolenza  Onda orograficha  Ceneri Vulcaniche






- Altitudine del aeroporto : 751 ft
- Codice IATA : ENC


LFSN - Nancy Essey

ULTIMO METAR :
  • 250230Z AUTO 28006KT 250V330 4500 -RA BR OVC011/// ///TCU 15/13 Q1020

METARs OBSOLETI :
  • 250200Z AUTO 29006KT 250V320 6000 OVC012/// ///TCU 15/13 Q1020
  • 250130Z AUTO 27007KT 230V310 5000 BR BKN010 OVC014 15/13 Q1020
  • 250100Z AUTO 27006KT 240V310 5000 -RA BR BKN009/// OVC013/// ///TCU 15/14 Q1021
  • 250030Z AUTO 26007KT 230V290 5000 BR OVC010/// ///TCU 15/14 Q1021
  • 250000Z AUTO 28007KT 250V310 5000 BR OVC009/// ///TCU 15/14 Q1021

Previsioni scadute.



MetMap, La meteo Aeronautica in un colpo d'occhio ! - Copyright ORBIFLY Dicembre 2007 - Disclaimer

ORBIFLY MET'MAP TEAM :

Programmazione e sviluppo : Alexandra Zaïnal
Concezione : Baudouin d'Aumeries
Aiuto per la programmazione : Marc-Olivier Méhu
Supporto tecnico e logistico : Manuel Goepfert
Aiuto per la traduzione : Arnaldo La Scala

Contatto : metmap@orbifly.com




FONTI E CREDITI :

   NOAA